TimeEST,TemperatureF,Dew PointF,Humidity,Sea Level PressureIn,VisibilityMPH,Wind Direction,Wind SpeedMPH,Gust SpeedMPH,PrecipitationIn,Events,Conditions,WindDirDegrees,DateUTC
12:53 AM,44.1,26.1,49,29.85,10.0,NE,3.5,-,N/A,,Overcast,40,2013-02-13 05:53:00
1:53 AM,42.1,28.0,58,29.83,10.0,NE,3.5,-,N/A,,Overcast,40,2013-02-13 06:53:00
2:53 AM,43.0,28.0,56,29.80,10.0,Calm,Calm,-,N/A,,Overcast,0,2013-02-13 07:53:00
3:53 AM,42.1,27.0,55,29.78,10.0,North,4.6,-,N/A,,Overcast,10,2013-02-13 08:53:00
4:53 AM,42.1,28.0,58,29.74,10.0,North,4.6,-,N/A,,Overcast,10,2013-02-13 09:53:00
5:53 AM,42.1,28.0,58,29.74,10.0,North,3.5,-,0.00,Rain,Light Rain,10,2013-02-13 10:53:00
6:53 AM,42.1,26.1,53,29.71,10.0,Calm,Calm,-,0.00,,Overcast,0,2013-02-13 11:53:00
7:53 AM,39.0,28.0,65,29.70,10.0,NNE,9.2,-,0.00,Rain,Light Rain,20,2013-02-13 12:53:00
8:53 AM,39.9,28.9,65,29.73,10.0,North,5.8,-,0.00,Rain,Light Rain,360,2013-02-13 13:53:00
9:53 AM,37.0,32.0,82,29.74,8.0,North,9.2,-,0.01,Rain,Light Rain,360,2013-02-13 14:53:00
10:18 AM,37.4,33.8,87,29.73,9.0,North,10.4,-,0.01,Rain,Light Rain,350,2013-02-13 15:18:00
10:45 AM,35.6,33.8,93,29.72,6.0,North,9.2,-,0.02,Rain,Light Rain,10,2013-02-13 15:45:00
10:53 AM,37.0,34.0,89,29.72,7.0,North,8.1,-,0.02,Rain,Light Rain,10,2013-02-13 15:53:00
11:20 AM,37.4,35.6,93,29.71,9.0,Variable,3.5,-,0.00,Rain,Light Rain,0,2013-02-13 16:20:00
11:53 AM,37.0,34.0,89,29.73,10.0,North,4.6,-,0.00,,Overcast,10,2013-02-13 16:53:00
12:46 PM,35.6,33.8,93,29.74,3.0,NNW,5.8,-,0.05,Rain,Light Rain,330,2013-02-13 17:46:00
12:53 PM,36.0,34.0,93,29.75,4.0,NNW,5.8,-,0.05,Rain,Light Rain,340,2013-02-13 17:53:00
1:53 PM,36.0,34.0,93,29.78,6.0,NNW,9.2,-,0.03,Rain,Light Rain,330,2013-02-13 18:53:00
2:22 PM,35.6,33.8,93,29.77,10.0,NNW,15.0,20.7,0.00,Rain,Light Rain,330,2013-02-13 19:22:00
2:31 PM,35.6,33.8,93,29.77,9.0,NNW,13.8,20.7,0.00,,Overcast,340,2013-02-13 19:31:00
2:53 PM,36.0,33.1,89,29.80,10.0,NNW,9.2,18.4,0.00,,Overcast,330,2013-02-13 19:53:00
3:53 PM,35.1,32.0,89,29.83,10.0,NW,9.2,-,0.00,,Overcast,320,2013-02-13 20:53:00
4:53 PM,36.0,32.0,86,29.85,10.0,WNW,6.9,-,N/A,,Overcast,300,2013-02-13 21:53:00
5:53 PM,35.1,30.9,85,29.87,10.0,WNW,6.9,-,N/A,,Overcast,300,2013-02-13 22:53:00
6:53 PM,34.0,30.0,85,29.91,10.0,West,5.8,-,N/A,,Overcast,280,2013-02-13 23:53:00
7:12 PM,35.6,30.2,81,29.90,10.0,West,4.6,-,N/A,,Overcast,270,2013-02-14 00:12:00
7:53 PM,35.1,32.0,89,29.94,10.0,West,3.5,-,N/A,,Overcast,260,2013-02-14 00:53:00
8:08 PM,35.6,32.0,87,29.92,10.0,Calm,Calm,-,N/A,,Overcast,0,2013-02-14 01:08:00
8:34 PM,35.6,30.2,81,29.92,10.0,WSW,3.5,-,N/A,,Mostly Cloudy,240,2013-02-14 01:34:00
8:53 PM,34.0,30.9,89,29.95,10.0,SW,4.6,-,N/A,,Mostly Cloudy,230,2013-02-14 01:53:00
9:06 PM,33.8,30.2,87,29.93,10.0,WSW,3.5,-,N/A,,Scattered Clouds,240,2013-02-14 02:06:00
9:53 PM,33.1,30.9,92,29.97,10.0,Calm,Calm,-,N/A,,Clear,0,2013-02-14 02:53:00
10:53 PM,30.0,28.9,96,29.97,3.0,Calm,Calm,-,N/A,,Scattered Clouds,0,2013-02-14 03:53:00
11:26 PM,30.2,28.4,93,29.96,1.8,Calm,Calm,-,N/A,,Clear,0,2013-02-14 04:26:00
11:37 PM,30.2,28.4,93,29.96,3.0,South,4.6,-,N/A,,Clear,190,2013-02-14 04:37:00
11:53 PM,30.0,28.9,96,29.99,4.0,SSW,3.5,-,N/A,,Clear,200,2013-02-14 04:53:00